Weather History for Grand Canyon, AZ

Change the Weather History Date:

Sunday, April 1, 2012

  Actual Average Record
Temperature  
Mean Temperature 40 °F -  
Max Temperature 51 °F 51 °F 75 °F (2011)
Min Temperature 28 °F 22 °F 10 °F (1999)
Degree Days  
Heating Degree Days 26    
Moisture  
Dew Point 22 °F    
Average Humidity 52    
Maximum Humidity 85    
Minimum Humidity 18    
Precipitation  
Precipitation 0.00 in - - ()
Sea Level Pressure  
Sea Level Pressure 29.73 in    
Wind  
Wind Speed 12 mph (WSW)    
Max Wind Speed 28 mph    
Max Gust Speed 38 mph    
Visibility 9 miles    
Events Snow    
Averages and records for this station are not official NWS values.
T = Trace of Precipitation, MM = Missing Value Source: NWS Daily Summary

Daily Weather History Graph

Daily Weather History Graph

Search for Another Location

Airport:

Trip Planner

Search our weather history database for the weather conditions in past years. The results will help you decide how hot, cold, wet, or windy it might be!

Date:

Astronomy

Apr. 01, 2012 Rise Set
Actual Time 6:14 AM MST 6:50 PM MST
Civil Twilight 5:48 AM MST 7:16 PM MST
Nautical Twilight 5:17 AM MST 7:47 PM MST
Astronomical Twilight 4:46 AM MST 8:18 PM MST
Moon 1:35 PM MST (4/1) 2:42 AM MST (4/1)
Length of Visible Light 13h 28m
Length of Day
12h 36m
Waxing Gibbous, 70% of the Moon is Illuminated
Apr 1
Waxing Gibbous
Apr 6
Full
Apr 13
Last Quarter
Apr 21
New
Apr 29
First Quarter

Hourly Weather History & Observations

Time (MST) Temp. Windchill Dew Point Humidity Pressure Visibility Wind Dir Wind Speed Gust Speed Precip Events Conditions
12:54 AM 46.9 °F - 25.0 °F 42% 29.70 in 10.0 mi South 8.1 mph - N/A   Clear
1:54 AM 44.1 °F 38.1 °F 26.1 °F 49% 29.67 in 10.0 mi SSW 11.5 mph 16.1 mph N/A   Clear
2:54 AM 39.9 °F 37.8 °F 25.0 °F 55% 29.67 in 10.0 mi SW 3.5 mph - N/A   Clear
3:54 AM 41.0 °F 35.2 °F 26.1 °F 55% 29.62 in 10.0 mi SSW 9.2 mph - N/A   Clear
4:54 AM 42.1 °F 35.2 °F 23.0 °F 47% 29.62 in 10.0 mi SSW 12.7 mph - N/A   Clear
5:54 AM 41.0 °F 34.3 °F 16.0 °F 36% 29.61 in 10.0 mi SSW 11.5 mph 19.6 mph N/A   Clear
6:54 AM 42.8 °F 35.4 °F 15.8 °F 34% 29.78 in 10.0 mi South 15.0 mph 21.9 mph N/A   Clear
7:54 AM 43.0 °F 34.5 °F 17.1 °F 35% 29.63 in 10.0 mi SW 19.6 mph 31.1 mph N/A   Clear
8:54 AM 43.0 °F 34.8 °F 23.0 °F 45% 29.65 in 10.0 mi SW 18.4 mph 26.5 mph N/A   Clear
9:54 AM 46.0 °F 37.0 °F 27.0 °F 47% 29.65 in 10.0 mi SW 27.6 mph 33.4 mph N/A   Mostly Cloudy
10:54 AM 46.9 °F - 25.0 °F 42% 29.64 in 10.0 mi SW 21.9 mph 35.7 mph N/A   Mostly Cloudy
11:54 AM 46.9 °F - 21.0 °F 36% 29.64 in 10.0 mi SW 26.5 mph 36.8 mph N/A   Mostly Cloudy
12:54 PM 51.1 °F - 18.0 °F 27% 29.62 in 10.0 mi WSW 20.7 mph 29.9 mph N/A   Mostly Cloudy
1:54 PM 48.9 °F - 7.0 °F 18% 29.65 in 10.0 mi WSW 23.0 mph 38.0 mph N/A   Clear
2:54 PM 48.0 °F - 14.0 °F 26% 29.67 in 10.0 mi West 17.3 mph 28.8 mph N/A   Partly Cloudy
3:54 PM 45.0 °F 38.5 °F 15.1 °F 30% 29.70 in 10.0 mi West 13.8 mph 26.5 mph N/A   Mostly Cloudy
4:54 PM 42.1 °F 34.9 °F 12.9 °F 31% 29.72 in 10.0 mi WSW 13.8 mph 23.0 mph N/A   Partly Cloudy
5:54 PM 42.1 °F 35.7 °F 15.1 °F 34% 29.74 in 10.0 mi West 11.5 mph 23.0 mph N/A   Partly Cloudy
6:40 PM 33.8 °F 26.4 °F 28.4 °F 81% 29.89 in 2.5 mi NNW 9.2 mph 19.6 mph 0.00 in Snow Light Snow
6:49 PM 33.8 °F 26.4 °F 28.4 °F 81% 29.90 in 3.0 mi WNW 9.2 mph - 0.00 in Snow Light Snow
6:54 PM 33.1 °F 26.9 °F 28.9 °F 85% 29.83 in 4.0 mi Variable 6.9 mph - 0.00 in Snow Light Snow
7:22 PM 33.8 °F 29.6 °F 28.4 °F 81% 29.89 in 6.0 mi Variable 4.6 mph 16.1 mph 0.00 in Snow Light Snow
7:54 PM 33.1 °F 26.1 °F 24.1 °F 70% 29.82 in 10.0 mi West 8.1 mph 16.1 mph 0.00 in   Scattered Clouds
8:54 PM 30.9 °F - 24.1 °F 76% 29.85 in 10.0 mi Calm Calm - N/A   Clear
9:54 PM 30.9 °F 27.5 °F 23.0 °F 72% 29.83 in 10.0 mi Variable 3.5 mph - N/A   Partly Cloudy
10:54 PM 28.9 °F - 21.9 °F 75% 29.83 in 10.0 mi Calm Calm - N/A   Clear
11:54 PM 28.0 °F 24.2 °F 23.0 °F 81% 29.83 in 10.0 mi Variable 3.5 mph - N/A   Clear